Regional Weather Roundup
Issued by NWS Cleveland, OH

Home | Current Version | Previous Version | Graphics & Text | Print | Product List | Glossary On
Versions: 1 2 3 4 5 6 7 8 9 10 11 12 13 14 15 16 17 18 19 20 21 22 23 24 25 26 27 28 29 30 31 32 33 34 35 36 37 38 39 40 41 42 43 44 45 46 47 48 49 50
000
ASUS41 KCLE 221700
RWRCLE
OHIO REGIONAL WEATHER ROUNDUP
NATIONAL WEATHER SERVICE WILMINGTON, OH
1200 PM EST MON DEC 22 2014

NOTE: "FAIR" INDICATES FEW OR NO CLOUDS BELOW 12,000 FEET WITH NO
SIGNIFICANT WEATHER AND/OR OBSTRUCTIONS TO VISIBILITY.

OHZ001>008-015>018-024>027-034-035-043-044-221800-
   NORTHWEST OHIO

CITY           SKY/WX    TMP DP  RH WIND       PRES   REMARKS
DEFIANCE       CLOUDY    34  28  79 E6        30.00S HAZE    WCI  29
FINDLAY        PTSUNNY   36  29  75 SE10      29.99F
TOLEDO EXPRESS PTSUNNY   36  27  69 E8        30.00F
TOLEDO METCALF MOSUNNY   37  28  70 E8        30.02F HAZE
LIMA           CLOUDY    41  31  67 SE8       29.97F
$$

OHZ009>014-019>023-028>033-038-089-221800-
   NORTHEAST OHIO

CITY           SKY/WX    TMP DP  RH WIND       PRES   REMARKS
CLE-HOPKINS    MOSUNNY   39  29  67 S6        30.07F
CLE-LAKEFRONT  PTSUNNY   40  27  59 SE8       30.05F
CUY CO. ARPT   PTSUNNY   41  30  65 S13       30.06F
LORAIN-ELYRIA  MOSUNNY   38  30  73 S8        30.04F
ASHTABULA      MOSUNNY   36  26  67 S12       30.08F
AKRON-CANTON   PTSUNNY   37  28  70 SE6       30.04F
WOOSTER        NOT AVBL
MANSFIELD      CLOUDY    34  29  82 SE8       30.01F WCI  27
YOUNGSTOWN     PTSUNNY   36  27  69 SE10      30.06F
$$

OHZ042-051>053-060>062-070>072-077>081-221800-
  SOUTHWEST OHIO

CITY           SKY/WX    TMP DP  RH WIND       PRES   REMARKS
CINC-COVINGTON CLOUDY    48  34  58 SE7       29.94
CINC-LUNKEN    PTSUNNY   48  35  60 S7        29.96F
HAMILTON       CLOUDY    47  34  60 VRB3      29.97F
DAYTON         NOT AVBL
WRIGHT-PAT AFB NOT AVBL
DAYTON GENERAL PTSUNNY   42  33  70 E7        29.95F
WILMINGTON     PTSUNNY   42  34  73 SE10      29.96F
$$

OHZ036-037-039>041-045>050-054>059-063>069-073>076-082>088-221800-
  CENTRAL AND SOUTHEAST OHIO

CITY           SKY/WX    TMP DP  RH WIND       PRES   REMARKS
COLUMBUS       CLOUDY    42  31  64 E6        30.02F
OSU AIRPORT    MOSUNNY   42  30  62 S9        30.01F
BOLTON FIELD   SUNNY     39  32  75 SE5       30.01F
RICKENBACK AFB NOT AVBL
NEWARK         CLOUDY    38  29  70 N3        30.02F
MARION         CLOUDY    36  29  75 SE8       30.01F HAZE
LANCASTER      PTSUNNY   54  32  43 SE8       30.02F
ZANESVILLE     MOSUNNY   40  31  70 SE5       30.04F
NEW PHILLY     CLOUDY    35  29  78 W3        30.06F
$$



USA.gov is the U.S. government's official web portal to all federal, state and local government web resources and services.